STARLINK-1335 (45581 NORAD) Tracking and Keplerian Element Data

This shows tracking and keplerian element data for the satellite.

Feedback or suggestion? Click here.




ElementValue
Catalog45581
NameSTARLINK-1335
Epoch Orbit177
Epoch Day143.91667824
Epoch Year2020
RAAN250.7039
Inclination53.0001
Eccentricity0.0001016
Argument of Perigee81.5408
Mean Anonmoly66.2267
Mean Motion15.62739253
Decay Rate-0.0002545
L11 45581U 20025BC 20143.91667824 -.00025450 00000-0 -27312-3 0 9991
L22 45581 53.0001 250.7039 0001016 81.5408 66.2267 15.62739253 1771

Live tracking and technical data element details for STARLINK-1335 (NORAD 45581). STARLINK-1335 can be tracked NOW for your location showing map with azimuth and elevation plus other details from your city location.

Track the satellite on the map from your city or location and see movement details for azimuth, elevation, latitude, longitude, range, height, and movement on the map or in text.







IsCatalogInMostPopularTable: catalog: 45581, numindb: 13
Update: records affected: 1



GetName: 45581 STARLINK-1335

Hit Count: updated at: Mon, 25 May 2020 06:57:26 GMT